F/V J. Louis Vincent — FQBL — position and weather

sailwx.info

Track history (hours):
 
Tides and Currents Weather Stations Pressure Air Temp Water Temp Dewpoint Dewpoint Depression Visibility Wind Speed Wind Dir Waves Ship Positions

F/V J. Louis Vincent

Last reported at 2014-Jul-24 10:30 UTC. Time now 2014-Jul-24 17:02 UTC.
Position N 42°56' E 004°04'.

Length 29 m.

Type: Fishing. MMSI: 227146600.

Date/timePositionNaut miles runAvg speedWind from/ knotsBaromVisibWave heightAir tempDewpointWater temp
2014-Jul-24 10:30N 42°56' E 004°04'4 4.4
2014-Jul-24 09:31N 42°54' E 004°09'4 4.3
2014-Jul-24 08:33N 42°52' E 004°15'0 0.1
2014-Jul-24 05:31N 42°52' E 004°15'5 4.3
2014-Jul-24 04:22N 42°57' E 004°15'6 7.2
2014-Jul-24 03:30N 43°02' E 004°10'1111.5
2014-Jul-24 02:33N 43°10' E 004°00'19 2.0
2014-Jul-23 17:07N 43°24' E 003°42'0 0.7
2014-Jul-23 16:31N 43°24' E 003°42'1 0.9
2014-Jul-23 15:32N 43°23' E 003°42'1010.3
2014-Jul-23 14:33N 43°14' E 003°49'7 7.3
2014-Jul-23 13:33N 43°08' E 003°54'5 4.6
2014-Jul-23 12:33N 43°04' E 003°58'5 4.6
2014-Jul-23 11:32N 43°01' E 004°02'4 3.6
2014-Jul-23 10:32N 43°00' E 004°07'4 4.4
2014-Jul-23 09:31N 42°59' E 004°13'6 4.4
2014-Jul-23 08:11N 42°54' E 004°18'3 4.7
2014-Jul-23 07:29N 42°51' E 004°19'2 1.6
2014-Jul-23 06:28N 42°50' E 004°18'8 4.3
2014-Jul-23 04:33N 42°54' E 004°08'7 5.7
2014-Jul-23 03:18N 42°59' E 004°00'1211.6
2014-Jul-23 02:18N 43°08' E 003°52'8 0.6
2014-Jul-22 12:18N 43°04' E 003°43'3 4.4
2014-Jul-22 11:32N 43°01' E 003°46'2 2.2
2014-Jul-22 10:25N 42°59' E 003°47'3 3.4
2014-Jul-22 09:33N 42°60' E 003°51'5 4.5
2014-Jul-22 08:31N 42°60' E 003°57'6 5.5
2014-Jul-22 07:27N 42°59' E 004°05'1 1.3
2014-Jul-22 06:27N 42°59' E 004°03'20 1.3
2014-Jul-21 14:33N 43°14' E 003°45'5 4.9
2014-Jul-21 13:33N 43°10' E 003°47'15 3.6
2014-Jul-21 09:26N 43°01' E 004°04'9 4.3
2014-Jul-21 07:25N 42°60' E 004°15'2 1.6
2014-Jul-21 06:12N 43°01' E 004°13'3 4.3
2014-Jul-21 05:30N 43°02' E 004°10'6 4.4
2014-Jul-21 04:06N 43°04' E 004°02'3 4.1
2014-Jul-21 03:26N 43°06' E 003°59'  
2014-Jul-18 16:27N 43°24' E 003°42'0 0.3
2014-Jul-18 15:32N 43°24' E 003°42'0 0.0
2014-Jul-18 14:31N 43°24' E 003°42'24 3.7
2014-Jul-18 08:05N 43°01' E 003°53'2 4.4
2014-Jul-18 07:33N 43°00' E 003°50'4 2.1
2014-Jul-18 05:32N 42°56' E 003°47'5 4.4
2014-Jul-18 04:24N 43°01' E 003°46'5 4.4
2014-Jul-18 03:22N 43°06' E 003°45'18 1.6
2014-Jul-17 16:05N 43°24' E 003°42'1910.5
2014-Jul-17 14:18N 43°11' E 003°60'7 8.7
2014-Jul-17 13:28N 43°05' E 004°06'17 3.2
2014-Jul-17 08:06N 43°03' E 004°30'2 1.1
2014-Jul-17 06:33N 43°01' E 004°29'6 4.5
2014-Jul-17 05:09N 43°01' E 004°20'3 4.6
2014-Jul-17 04:31N 43°02' E 004°16'33 1.7
2014-Jul-16 08:30N 42°52' E 003°33'4 1.9
2014-Jul-16 06:26N 42°48' E 003°34'5 4.1
2014-Jul-16 05:19N 42°53' E 003°34'4 4.8
2014-Jul-16 04:34N 42°56' E 003°35'4 4.4
2014-Jul-16 03:33N 43°00' E 003°36'5 4.9
2014-Jul-16 02:29N 43°06' E 003°37'1211.8
2014-Jul-16 01:28N 43°17' E 003°41'6 0.8
2014-Jul-15 17:33N 43°24' E 003°42'0 0.4
2014-Jul-15 16:31N 43°24' E 003°42'0 0.4
2014-Jul-15 15:30N 43°24' E 003°42'8 8.4
2014-Jul-15 14:32N 43°16' E 003°42'9 9.2
2014-Jul-15 13:33N 43°07' E 003°42'4 4.3
2014-Jul-15 12:31N 43°03' E 003°44'5 4.4
2014-Jul-15 11:21N 42°59' E 003°49'4 4.2
2014-Jul-15 10:31N 42°58' E 003°54'4 4.1
2014-Jul-15 09:33N 42°59' E 003°49'5 4.4
2014-Jul-15 08:33N 42°57' E 003°43'8 3.7
2014-Jul-15 06:25N 42°51' E 003°36'3 3.8
2014-Jul-15 05:33N 42°54' E 003°37'4 4.4
2014-Jul-15 04:33N 42°59' E 003°38'4 4.4
2014-Jul-15 03:33N 43°03' E 003°40'  
Track history (hours):
 
Tides and Currents Weather Stations Pressure Air Temp Water Temp Dewpoint Dewpoint Depression Visibility Wind Speed Wind Dir Waves Ship Positions

F/V J. Louis Vincent

Last reported at 2014-Jul-24 10:30 UTC. Time now 2014-Jul-24 17:02 UTC.
Position N 42°56' E 004°04'.

Length 29 m.

Type: Fishing. MMSI: 227146600.

Date/timePositionNaut miles runAvg speedWind from/ knotsBaromVisibWave heightAir tempDewpointWater temp
2014-Jul-24 10:30N 42°56' E 004°04'4 4.4
2014-Jul-24 09:31N 42°54' E 004°09'4 4.3
2014-Jul-24 08:33N 42°52' E 004°15'0 0.1
2014-Jul-24 05:31N 42°52' E 004°15'5 4.3
2014-Jul-24 04:22N 42°57' E 004°15'6 7.2
2014-Jul-24 03:30N 43°02' E 004°10'1111.5
2014-Jul-24 02:33N 43°10' E 004°00'19 2.0
2014-Jul-23 17:07N 43°24' E 003°42'0 0.7
2014-Jul-23 16:31N 43°24' E 003°42'1 0.9
2014-Jul-23 15:32N 43°23' E 003°42'1010.3
2014-Jul-23 14:33N 43°14' E 003°49'7 7.3
2014-Jul-23 13:33N 43°08' E 003°54'5 4.6
2014-Jul-23 12:33N 43°04' E 003°58'5 4.6
2014-Jul-23 11:32N 43°01' E 004°02'4 3.6
2014-Jul-23 10:32N 43°00' E 004°07'4 4.4
2014-Jul-23 09:31N 42°59' E 004°13'6 4.4
2014-Jul-23 08:11N 42°54' E 004°18'3 4.7
2014-Jul-23 07:29N 42°51' E 004°19'2 1.6
2014-Jul-23 06:28N 42°50' E 004°18'8 4.3
2014-Jul-23 04:33N 42°54' E 004°08'7 5.7
2014-Jul-23 03:18N 42°59' E 004°00'1211.6
2014-Jul-23 02:18N 43°08' E 003°52'8 0.6
2014-Jul-22 12:18N 43°04' E 003°43'3 4.4
2014-Jul-22 11:32N 43°01' E 003°46'2 2.2
2014-Jul-22 10:25N 42°59' E 003°47'3 3.4
2014-Jul-22 09:33N 42°60' E 003°51'5 4.5
2014-Jul-22 08:31N 42°60' E 003°57'6 5.5
2014-Jul-22 07:27N 42°59' E 004°05'1 1.3
2014-Jul-22 06:27N 42°59' E 004°03'20 1.3
2014-Jul-21 14:33N 43°14' E 003°45'5 4.9
2014-Jul-21 13:33N 43°10' E 003°47'15 3.6
2014-Jul-21 09:26N 43°01' E 004°04'9 4.3
2014-Jul-21 07:25N 42°60' E 004°15'2 1.6
2014-Jul-21 06:12N 43°01' E 004°13'3 4.3
2014-Jul-21 05:30N 43°02' E 004°10'6 4.4
2014-Jul-21 04:06N 43°04' E 004°02'3 4.1
2014-Jul-21 03:26N 43°06' E 003°59'  
2014-Jul-18 16:27N 43°24' E 003°42'0 0.3
2014-Jul-18 15:32N 43°24' E 003°42'0 0.0
2014-Jul-18 14:31N 43°24' E 003°42'24 3.7
2014-Jul-18 08:05N 43°01' E 003°53'2 4.4
2014-Jul-18 07:33N 43°00' E 003°50'4 2.1
2014-Jul-18 05:32N 42°56' E 003°47'5 4.4
2014-Jul-18 04:24N 43°01' E 003°46'5 4.4
2014-Jul-18 03:22N 43°06' E 003°45'18 1.6
2014-Jul-17 16:05N 43°24' E 003°42'1910.5
2014-Jul-17 14:18N 43°11' E 003°60'7 8.7
2014-Jul-17 13:28N 43°05' E 004°06'17 3.2
2014-Jul-17 08:06N 43°03' E 004°30'2 1.1
2014-Jul-17 06:33N 43°01' E 004°29'6 4.5
2014-Jul-17 05:09N 43°01' E 004°20'3 4.6
2014-Jul-17 04:31N 43°02' E 004°16'33 1.7
2014-Jul-16 08:30N 42°52' E 003°33'4 1.9
2014-Jul-16 06:26N 42°48' E 003°34'5 4.1
2014-Jul-16 05:19N 42°53' E 003°34'4 4.8
2014-Jul-16 04:34N 42°56' E 003°35'4 4.4
2014-Jul-16 03:33N 43°00' E 003°36'5 4.9
2014-Jul-16 02:29N 43°06' E 003°37'1211.8
2014-Jul-16 01:28N 43°17' E 003°41'6 0.8
2014-Jul-15 17:33N 43°24' E 003°42'0 0.4
2014-Jul-15 16:31N 43°24' E 003°42'0 0.4
2014-Jul-15 15:30N 43°24' E 003°42'8 8.4
2014-Jul-15 14:32N 43°16' E 003°42'9 9.2
2014-Jul-15 13:33N 43°07' E 003°42'4 4.3
2014-Jul-15 12:31N 43°03' E 003°44'5 4.4
2014-Jul-15 11:21N 42°59' E 003°49'4 4.2
2014-Jul-15 10:31N 42°58' E 003°54'4 4.1
2014-Jul-15 09:33N 42°59' E 003°49'5 4.4
2014-Jul-15 08:33N 42°57' E 003°43'8 3.7
2014-Jul-15 06:25N 42°51' E 003°36'3 3.8
2014-Jul-15 05:33N 42°54' E 003°37'4 4.4
2014-Jul-15 04:33N 42°59' E 003°38'4 4.4
2014-Jul-15 03:33N 43°03' E 003°40'  

Dump ship's entire track history